Regional Weather Roundup
Issued by NWS

Home | Current Version | Previous Version | Text Only | Print | Product List | Glossary Off
Versions: 1 2 3 4 5 6 7 8 9 10 11 12 13 14 15 16 17 18 19 20 21 22 23 24 25 26 27 28 29 30 31 32 33 34 35 36 37 38 39 40 41 42 43 44 45

000
ASUS45 KBOU 020707
RWRCO

WEATHER ROUNDUP FOR COLORADO
NATIONAL WEATHER SERVICE DENVER/BOULDER CO
100 AM MDT THU OCT 02 2014

NOTE: "FAIR" INDICATES FEW OR NO CLOUDS BELOW 12000 FEET WITH NO
SIGNIFICANT WEATHER AND/OR OBSTRUCTIONS TO VISIBILITY.

COZ001>005-013-030-031-020800-
...NORTHWEST COLORADO...

CITY           SKY/WX    TMP DP  RH WIND       PRES   REMARKS
CRAIG          CLOUDY    39  34  82 NW3       30.21R
HAYDEN         MOCLDY    36  32  87 W7        30.20R
MEEKER         CLOUDY    37  35  92 CALM      30.22R
MOUNT WERNER   NOT AVBL
STEAMBOAT SPGS CLOUDY    35  33  94 CALM      30.19R
WALDEN         MOCLDY    32  30  93 CALM      30.16R
$$

COZ006>008-011-020800-
...WEST CENTRAL VALLEYS...

CITY           SKY/WX    TMP DP  RH WIND       PRES   REMARKS
GRAND JUNCTION MOCLDY    42  40  92 N6        30.18S
MONTROSE       CLOUDY    42  39  89 E5        30.20S
EAGLE          MOCLDY    39  37  93 SE3       30.21R
RIFLE          PTCLDY    40  38  93 CALM      30.20R
DELTA          FLURRIES  45  41  87 NE6       30.17S
NUCLA          MOCLDY    43  36  75 CALM      30.22R
$$

COZ017>023-064>068-020800-
...SOUTHWEST COLORADO...

CITY           SKY/WX    TMP DP  RH WIND       PRES   REMARKS
DURANGO        PTCLDY    41  35  79 SW3       30.09S
CORTEZ         CLEAR     45  27  49 CALM      30.14S
PAGOSA SPRINGS PTCLDY    40  32  74 CALM      30.11S
TELLURIDE      MOCLDY   N/A N/A N/A W10       30.20R
WOLF CREEK PAS MOCLDY    25  21  86 SW12      30.22S WCI  14
$$

COZ009-010-012-014-032>034-037-058>063-020800-
...CENTRAL COLORADO...

CITY           SKY/WX    TMP DP  RH WIND       PRES   REMARKS
ASPEN          FLURRIES  34  33  96 N3        30.19R
BUENA VISTA    CLOUDY    39  25  56 NW16G26   30.12R
COPPER MTN     CLOUDY    25  19  80 W17G25    30.21F WCI  11
BERTHOUD PASS  CLOUDY    18  14  86 N18G30    30.19R WCI   2
COTTONWOOD PAS CLOUDY    36  23  60 W12G17    30.16R
GUNNISON       MOCLDY    37  30  75 S8        30.17S
KREMMLING      CLOUDY    36  32  87 NW6       30.19R
LEADVILLE      CLOUDY    28  22  78 N13       30.17S WCI  17
SALIDA         MOCLDY    43  31  63 NW5       30.18S
SUNLIGHT       FOG       28  27  93 N3        30.25S VSB 1/4
WILKERSON PASS NOT AVBL
$$

COZ069>075-020800-
...SAN LUIS VALLEY/SANGRE DE CRISTO MOUNTAINS...

CITY           SKY/WX    TMP DP  RH WIND       PRES   REMARKS
ALAMOSA        PTCLDY    38  31  76 N8        30.09S
LA VETA PASS   CLOUDY    32  32 100 CALM      30.16S FOG
SAGUACHE       CLOUDY    37  32  81 NW20      30.12S
$$

COZ035-036-038>040-020800-
...NORTHERN COLORADO FRONT RANGE...

CITY           SKY/WX    TMP DP  RH WIND       PRES   REMARKS
DENVER INTL AP LGT RAIN  43  39  86 SE5       30.08F
DMNS CITY PARK   N/A     42  40  93 S5        30.10R
AURORA         LGT RAIN  41  39  92 SW3       30.10F
FRONT RANGE AP LGT RAIN  45  43  93 W10       30.10S
ERIE MUNI ARPT CLOUDY    43  40  89 SW3       30.09S
BOULDER MUN AP CLOUDY    43  41  93 CALM      30.09S
CENTENNIAL     LGT RAIN  40  37  89 E8        30.11S
BROOMFIELD     CLOUDY    41  39  93 SW6       30.10S
FORT COLLINS   CLOUDY    43  39  87 S5        30.10R
LONGMONT       CLOUDY    46  43  90 CALM      30.11R
$$

COZ041-046-047-076>085-087-088-020800-
...PIKES PEAK/PALMER DIVIDE AND SOUTHERN FOOTHILLS...

CITY           SKY/WX    TMP DP  RH WIND       PRES   REMARKS
COLO. SPRINGS  CLOUDY    44  36  73 N18G28    30.08R
A. F. ACADEMY  MOCLDY    40  35  80 NW14      30.09R
ELLICOTT       NOT AVBL
FALCON         PTCLDY    38  35  88 N16G24    30.08S
FORT CARSON    PTCLDY    44  36  71 N17G29    30.05R
LIMON          CLOUDY    43  39  86 NW25G32   30.06R
MONUMENT HILL  DRIZZLE   36  34  93 NW13      30.11R
TRINIDAD       PTCLDY    45  39  79 NW8       30.04R
$$

COZ042>045-048>051-090-091-020800-
...NORTHEAST COLORADO...

CITY           SKY/WX    TMP DP  RH WIND       PRES   REMARKS
GREELEY ARPT   CLOUDY    45  36  70 CALM      30.09S
AKRON          CLOUDY    44  43  96 NW14      30.02S
BURLINGTON     CLOUDY    47  44  90 N14G22    29.95S
WRAY           CLOUDY    48  47  95 NW12      29.98F
STERLING       MOCLDY    46  45  93 NW7       30.03S
HOLYOKE        CLOUDY    48  45  87 NW10      29.99S
FORT MORGAN    MOCLDY    43  41  90 W6        30.07S
$$

COZ086-089-092>099-020800-
...SOUTHEAST COLORADO...

CITY           SKY/WX    TMP DP  RH WIND       PRES   REMARKS
PUEBLO         CLOUDY    51  36  56 N25G32    30.01R
LA JUNTA       PTCLDY    51  43  74 N8        29.99R
LAMAR          PTCLDY    50  45  83 N7        29.94R
SPRINGFIELD      N/A     49  44  83 NW23G33   29.92R
$$


USA.gov is the U.S. government's official web portal to all federal, state and local government web resources and services.